Location: Zagreb
(45.8000°N, 16.0000°E)
Time: 16:07:59
(UTC+01:00)

ISS - Visible Passes

Search period start: 02 December 2023 00:00
Search period end: 12 December 2023 00:00
Orbit: 415 x 417 km, 51.6° (Epoch: 02 December)

Date Brightness Start Highest point End Pass type
(mag) Time Alt. Az. Time Alt. Az. Time Alt. Az.
02 Dec -3.8 17:30:08 10° WNW 17:33:30 70° NNE 17:35:27 23° ESE visible
02 Dec -0.7 19:07:22 10° W 19:08:24 15° W 19:08:24 15° W visible
03 Dec -3.5 16:41:40 10° WNW 16:44:57 49° NNE 16:48:13 10° E visible
03 Dec -2.2 18:18:33 10° WNW 18:21:37 33° SW 18:22:30 28° S visible
04 Dec -3.0 17:29:52 10° WNW 17:33:09 53° SW 17:36:26 10° SE visible
05 Dec -3.7 16:41:14 10° WNW 16:44:36 84° SSW 16:47:56 10° ESE visible
05 Dec -0.7 18:19:04 10° W 18:20:52 14° SW 18:22:40 10° SSW visible
06 Dec -1.2 17:29:44 10° W 17:32:25 22° SW 17:35:04 10° S visible
